WZZ6931 EDDH-LROP

Flight info

Callsign WZZ6931
Flight time N/A
Altitude 35000
Route RAMAR6G/33 RAMAR Z998 GODUR DCT HDO DCT EVIKU DCT BNO DCT ODNEM DCT BERVA DCT ERGOM DCT EPARI DCT TEGRI DCT NEKUL DCT LAMIT DCT TOSVI
Aircraft A321/M-SDE3FGHIRWY/LB1

Departure

Time 2026-05-04 15:40
Airport Hamburg Helmut Schmidt Airport (EDDH)

Arrival

Time N/A
Airport Bucharest Henri Coandă International Airport (LROP)
Time Latitude Longitude Altitude Speed Heading
2026-05-04 15:09 53.63294 10.00352 51 ft 0 kts 86°
2026-05-04 15:32 53.63300 10.00259 47 ft 3 kts 121°
2026-05-04 15:32 53.63317 10.00235 47 ft 0 kts 175°
2026-05-04 15:35 53.63315 10.00235 47 ft 1 kts 175°
2026-05-04 15:36 53.63228 10.00182 50 ft 12 kts 192°
2026-05-04 15:36 53.63170 10.00185 49 ft 6 kts 177°
2026-05-04 15:36 53.63125 10.00189 51 ft 7 kts 176°
2026-05-04 15:37 53.63074 10.00183 51 ft 8 kts 198°
2026-05-04 15:37 53.63029 10.00133 51 ft 8 kts 211°
2026-05-04 15:37 53.62977 10.00080 48 ft 9 kts 211°
2026-05-04 15:37 53.62923 10.00035 50 ft 9 kts 185°
2026-05-04 15:38 53.62859 10.00005 48 ft 11 kts 235°
2026-05-04 15:38 53.62845 9.99962 50 ft 0 kts 242°
2026-05-04 15:38 53.62842 9.99952 49 ft 3 kts 242°
2026-05-04 15:39 53.62824 9.99897 50 ft 9 kts 243°
2026-05-04 15:39 53.62834 9.99774 47 ft 13 kts 320°
2026-05-04 15:39 53.62865 9.99745 49 ft 3 kts 332°
2026-05-04 15:40 53.62990 9.99634 48 ft 51 kts 333°
2026-05-04 15:40 53.63512 9.99181 52 ft 115 kts 333°
2026-05-04 15:40 53.64380 9.98427 62 ft 162 kts 330°
2026-05-04 15:40 53.65366 9.97577 661 ft 156 kts 331°
2026-05-04 15:41 53.66336 9.96750 1101 ft 159 kts 331°
2026-05-04 15:41 53.67338 9.95890 1618 ft 160 kts 331°
2026-05-04 15:41 53.68354 9.95021 1977 ft 176 kts 332°
2026-05-04 15:41 53.69635 9.94616 2257 ft 202 kts 358°
2026-05-04 15:42 53.71081 9.94645 2650 ft 213 kts 356°
2026-05-04 15:42 53.72577 9.94843 3132 ft 222 kts 13°
2026-05-04 15:42 53.73909 9.96298 3592 ft 243 kts 50°
2026-05-04 15:42 53.74759 9.98905 3912 ft 266 kts 63°
2026-05-04 15:43 53.75574 10.01795 4412 ft 278 kts 63°
2026-05-04 15:43 53.76417 10.04762 5125 ft 282 kts 63°
2026-05-04 15:43 53.77275 10.07760 5842 ft 285 kts 63°
2026-05-04 15:43 53.78137 10.10755 6556 ft 289 kts 63°
2026-05-04 15:44 53.79024 10.13833 7229 ft 293 kts 63°
2026-05-04 15:44 53.79917 10.16944 7911 ft 296 kts 63°
2026-05-04 15:44 53.80820 10.20102 8596 ft 300 kts 63°
2026-05-04 15:44 53.81737 10.23304 9280 ft 305 kts 63°
2026-05-04 15:45 53.82670 10.26558 9952 ft 309 kts 63°
2026-05-04 15:45 53.83598 10.29907 10286 ft 326 kts 69°
2026-05-04 15:45 53.84214 10.33725 10411 ft 347 kts 82°
2026-05-04 15:45 53.84304 10.37921 10535 ft 367 kts 96°
2026-05-04 15:46 53.83828 10.42252 10677 ft 383 kts 105°
2026-05-04 15:46 53.83216 10.46645 11115 ft 391 kts 105°
2026-05-04 15:46 53.82595 10.51161 11676 ft 396 kts 104°
2026-05-04 15:46 53.81973 10.55711 12251 ft 400 kts 104°
2026-05-04 15:47 53.81344 10.60329 12838 ft 404 kts 104°
2026-05-04 15:47 53.80705 10.65005 13417 ft 409 kts 105°
2026-05-04 15:47 53.79837 10.69578 13953 ft 411 kts 115°
2026-05-04 15:47 53.78517 10.73869 14487 ft 412 kts 124°
2026-05-04 15:48 53.76982 10.78001 15054 ft 416 kts 125°
2026-05-04 15:48 53.75447 10.82117 15594 ft 419 kts 125°
2026-05-04 15:48 53.72232 10.90433 16730 ft 423 kts 131°
2026-05-04 15:49 53.70242 10.94074 17280 ft 422 kts 141°
2026-05-04 15:49 53.67963 10.97070 17803 ft 420 kts 151°
2026-05-04 15:49 53.65469 10.99637 18335 ft 421 kts 154°
2026-05-04 15:49 53.62957 11.02192 18792 ft 424 kts 154°
2026-05-04 15:50 53.60420 11.04769 19240 ft 426 kts 154°
2026-05-04 15:50 53.57880 11.07347 19697 ft 428 kts 154°
2026-05-04 15:50 53.55326 11.09942 20136 ft 431 kts 154°
2026-05-04 15:50 53.52747 11.12563 20575 ft 433 kts 154°
2026-05-04 15:51 53.50158 11.15192 21006 ft 436 kts 154°
2026-05-04 15:51 53.47550 11.17836 21428 ft 439 kts 154°
2026-05-04 15:51 53.44969 11.20450 21805 ft 441 kts 154°
2026-05-04 15:51 53.42333 11.23117 22205 ft 444 kts 154°
2026-05-04 15:52 53.39685 11.25791 22602 ft 447 kts 154°
2026-05-04 15:52 53.37006 11.28488 22975 ft 449 kts 154°
2026-05-04 15:52 53.34322 11.31179 23368 ft 452 kts 154°
2026-05-04 15:52 53.31623 11.33883 23723 ft 455 kts 154°
2026-05-04 15:53 53.28892 11.36621 24038 ft 457 kts 154°
2026-05-04 15:53 53.26253 11.39603 24361 ft 464 kts 147°
2026-05-04 15:53 53.23826 11.43222 24687 ft 470 kts 142°
2026-05-04 15:53 53.21422 11.46945 25001 ft 472 kts 142°
2026-05-04 15:54 53.19006 11.50665 25318 ft 474 kts 143°
2026-05-04 15:54 53.16578 11.54381 25646 ft 475 kts 143°
2026-05-04 15:54 53.14169 11.58057 25983 ft 476 kts 143°
2026-05-04 15:54 53.11723 11.61784 26307 ft 478 kts 143°
2026-05-04 15:55 53.09264 11.65528 26628 ft 480 kts 143°
2026-05-04 15:55 53.06794 11.69285 26939 ft 482 kts 143°
2026-05-04 15:55 53.04320 11.73042 27269 ft 483 kts 143°
2026-05-04 15:55 53.01846 11.76801 27682 ft 482 kts 143°
2026-05-04 15:56 52.99405 11.80637 28072 ft 485 kts 139°
2026-05-04 15:56 52.97274 11.84909 28457 ft 490 kts 132°
2026-05-04 15:56 52.95230 11.89433 28854 ft 489 kts 132°
2026-05-04 15:56 52.93183 11.93934 29264 ft 489 kts 133°
2026-05-04 15:57 52.91128 11.98414 29672 ft 488 kts 133°
2026-05-04 15:57 52.89069 12.02879 30074 ft 487 kts 133°
2026-05-04 15:57 52.87007 12.07326 30429 ft 487 kts 133°
2026-05-04 15:57 52.84952 12.11761 30754 ft 486 kts 133°
2026-05-04 15:58 52.82898 12.16212 31091 ft 486 kts 133°
2026-05-04 15:58 52.80879 12.20602 31407 ft 486 kts 133°
2026-05-04 15:58 52.78836 12.25042 31728 ft 485 kts 133°
2026-05-04 15:58 52.76793 12.29476 32050 ft 485 kts 133°
2026-05-04 15:59 52.74743 12.33904 32382 ft 485 kts 133°
2026-05-04 15:59 52.72684 12.38291 32700 ft 482 kts 136°
2026-05-04 15:59 52.70384 12.42259 33008 ft 475 kts 144°
2026-05-04 15:59 52.67807 12.45599 33313 ft 468 kts 153°
2026-05-04 16:00 52.65057 12.48385 33613 ft 464 kts 156°
2026-05-04 16:00 52.62286 12.51107 33920 ft 464 kts 156°
2026-05-04 16:00 52.59512 12.53840 34190 ft 464 kts 155°
2026-05-04 16:00 52.56753 12.56559 34433 ft 463 kts 155°
2026-05-04 16:01 52.54021 12.59250 34667 ft 463 kts 155°
2026-05-04 16:01 52.51263 12.61962 34918 ft 462 kts 155°
2026-05-04 16:01 52.48503 12.64669 35164 ft 462 kts 155°
2026-05-04 16:01 52.45748 12.67364 35403 ft 462 kts 155°
2026-05-04 16:02 52.42994 12.70057 35641 ft 462 kts 155°
2026-05-04 16:02 52.40233 12.72751 35882 ft 461 kts 155°
2026-05-04 16:02 52.34716 12.78122 36353 ft 461 kts 155°
2026-05-04 16:03 52.31956 12.80806 36582 ft 461 kts 155°
2026-05-04 16:03 52.29241 12.83443 36791 ft 460 kts 154°
2026-05-04 16:03 52.26447 12.86149 36952 ft 460 kts 154°
2026-05-04 16:04 52.20987 12.91450 36970 ft 460 kts 154°
2026-05-04 16:04 52.12753 12.99449 36966 ft 459 kts 154°
2026-05-04 16:05 52.07261 13.04766 36963 ft 459 kts 154°
2026-05-04 16:06 51.99054 13.12666 36955 ft 459 kts 154°
2026-05-04 16:07 51.88047 13.23197 36966 ft 459 kts 154°
2026-05-04 16:08 51.77492 13.34856 36967 ft 464 kts 147°
2026-05-04 16:09 51.64662 13.50619 36975 ft 464 kts 147°
2026-05-04 16:10 51.54427 13.63124 36976 ft 463 kts 147°
2026-05-04 16:11 51.44152 13.75607 36981 ft 463 kts 147°
2026-05-04 16:12 51.28805 13.94101 37002 ft 461 kts 147°
2026-05-04 16:13 51.18975 14.07343 36982 ft 463 kts 142°
2026-05-04 16:14 51.09268 14.20760 36986 ft 461 kts 144°
2026-05-04 16:16 50.97069 14.37167 36985 ft 462 kts 143°
2026-05-04 16:17 50.84786 14.53604 36988 ft 462 kts 144°
2026-05-04 16:18 50.74975 14.66642 36982 ft 462 kts 143°
2026-05-04 16:19 50.62627 14.82917 36986 ft 463 kts 143°
2026-05-04 16:20 50.50280 14.99122 36986 ft 462 kts 143°
2026-05-04 16:22 50.37938 15.15169 36985 ft 462 kts 143°
2026-05-04 16:23 50.23055 15.34388 36976 ft 463 kts 143°
2026-05-04 16:25 50.08143 15.53484 36969 ft 464 kts 143°
2026-05-04 16:26 49.90687 15.75633 36993 ft 464 kts 143°
2026-05-04 16:28 49.78212 15.91342 36996 ft 463 kts 143°
2026-05-04 16:29 49.60646 16.13250 36998 ft 464 kts 143°
2026-05-04 16:31 49.48097 16.28785 36993 ft 464 kts 143°
2026-05-04 16:32 49.33804 16.46363 36993 ft 465 kts 143°
2026-05-04 16:33 49.22852 16.59732 36996 ft 466 kts 143°
2026-05-04 16:34 49.16094 16.67945 36988 ft 466 kts 142°
2026-05-04 16:35 49.02582 16.89271 36992 ft 467 kts 135°
2026-05-04 16:36 48.95857 17.00036 37017 ft 467 kts 135°
2026-05-04 16:37 48.91386 17.07150 36916 ft 463 kts 135°
2026-05-04 16:37 48.89161 17.10685 36664 ft 463 kts 135°
2026-05-04 16:37 48.84698 17.17755 35534 ft 465 kts 135°
2026-05-04 16:38 48.80301 17.24755 34941 ft 464 kts 134°
2026-05-04 16:39 48.69092 17.42558 34990 ft 468 kts 135°
2026-05-04 16:40 48.60068 17.56746 34999 ft 468 kts 135°